Home > Time Zones > World Clock > Weather > Norway > Sola > Past weeks

Flag for Norway Weather past 2 weeks in Sola, Norway

Now
66 °F

Partly sunny.


Feels Like: 66 °F
Forecast: 59 / 64 °F
Wind: 8 mph from West

Location: Stavanger / Sola

Current Time: Jul 30, 2014 at 1:36:45 PM

Latest Report: Jul 30, 2014 at 12:00 PM


Visibility: 19 mi

Pressure: 29.75 "Hg

Humidity: 68%

Dew point: 55 °F

Location of SolaLocation

Historic Weather in Sola — Graph

°F

Sola temperature yesterday

Maximum temperature yesterday: 69 °F (at 1:00 PM)
Minimum temperature yesterday: 64 °F (at 11:00 PM)
Average temperature yesterday: 67 °F

Past Weeks' High & Low Weather Summary

 TemperatureHumidityPressure
High84 °F (Jul 20, 3:00 PM)96% (Jul 28, 6:00 AM)30.32 "Hg (Jul 28, 6:00 AM)
Low56 °F (Jul 19, 5:00 AM)37% (Jul 20, 2:00 PM)29.73 "Hg (Jul 30, 8:00 AM)
Average69 °F69%30.06 "Hg
* Reported Jul 15 12:00 Noon — Jul 30 12:00 Noon, Sola, Weather by CustomWeather, © 2014

Note: Actual official high and low records may vary slightly from our data, if they occured in-between our weather recording intervals... More about our weather records

Advertising

Sola weather history for previous 24 hours

 ConditionsComfort  
Time TempWeatherWind HumidityBarometerVisibility
12:00 PM
Jul 30
66 °FPartly sunny.8 mph68%29.75 "Hg19 mi
11:00 AM64 °FScattered clouds.3 mph75%29.75 "Hg19 mi
10:00 AM64 °FPassing clouds.5 mph76%29.75 "Hg19 mi
9:00 AM64 °FPartly sunny.3 mph69%29.74 "Hg25 mi
8:00 AM64 °FOvercast.2 mph69%29.73 "Hg28 mi
7:00 AM62 °FScattered clouds.2 mph73%29.74 "Hg31 mi
6:00 AM61 °FPassing clouds.2 mph75%29.74 "Hg31 mi
5:00 AM62 °FPassing clouds.5 mph79%29.74 "Hg31 mi
4:00 AM62 °FOvercast.6 mph84%29.74 "Hg31 mi
3:00 AM61 °FLots of rain. Overcast.2 mph94%29.75 "Hg9 mi
2:00 AM62 °FOvercast.3 mph91%29.76 "Hg14 mi
1:00 AM62 °FOvercast.1 mph91%29.78 "Hg14 mi
12:00 AM62 °FOvercast.1 mph90%29.79 "Hg22 mi
11:00 PM
Jul 29
64 °FOvercast.3 mph86%29.80 "Hg22 mi
10:00 PM65 °FScattered clouds.2 mph74%29.80 "Hg31 mi
9:00 PM66 °FPartly sunny.1 mph70%29.81 "Hg31 mi
8:00 PM66 °FOvercast.2 mph69%29.83 "Hg25 mi
7:00 PM66 °FOvercast.5 mph70%29.85 "Hg31 mi
6:00 PM67 °FPartly sunny.6 mph67%29.86 "Hg25 mi
5:00 PM67 °FPartly sunny.5 mph68%29.86 "Hg25 mi
4:00 PM68 °FOvercast.5 mph65%29.88 "Hg25 mi
3:00 PM68 °FPartly sunny.6 mph64%29.88 "Hg22 mi
2:00 PM69 °FPassing clouds.6 mph64%29.88 "Hg25 mi
1:00 PM69 °FScattered clouds.7 mph66%29.89 "Hg17 mi
Weather by CustomWeather, © 2014

See weather overviewHow to use our weather pages